HP1CDW-11 Weather Reports


time (UTC)temp
F
wind
direction
speed
knots
gust
knots
rain 1hr
in
rain 24hr
in
rain mn
in
humidity
%
barometer
mb
20260503051818 85 0.0 0.0 0.00 0.00 0.00 61 1011.3
20260503050817 85 0.0 0.0 0.00 0.00 0.00 60 1011.4
20260503045817 85 0.0 0.0 0.00 0.00 0.00 60 1011.5
20260503044817 85 0.0 0.0 0.00 0.00 0.00 60 1011.7
20260503043816 85 0.0 0.0 0.00 0.00 0.00 60 1011.8
20260503042816 85 0.0 0.0 0.00 0.00 0.00 60 1011.7
20260503041816 85 0.0 0.0 0.00 0.00 0.00 60 1011.8
20260503040815 85 0.0 0.0 0.00 0.00 0.00 60 1011.8
20260503035815 85 0.0 0.0 0.00 0.00 0.00 60 1011.9
20260503034815 85 0.0 0.0 0.00 0.00 0.00 60 1011.9
20260503033814 85 0.0 0.0 0.00 0.00 0.00 60 1012.0
20260503032814 85 0.0 0.0 0.00 0.00 0.00 60 1012.1
20260503031814 85 0.0 0.0 0.00 0.00 0.00 60 1011.9
20260503030816 85 0.0 0.0 0.00 0.00 0.00 60 1011.9
20260503025813 85 0.0 0.0 0.00 0.00 0.00 59 1011.8
20260503024813 85 0.0 0.0 0.00 0.00 0.00 59 1011.7
20260503023813 85 0.0 0.0 0.00 0.00 0.00 59 1011.7
20260503022812 85 0.0 0.0 0.00 0.00 0.00 59 1011.6
20260503021812 85 0.0 0.0 0.00 0.00 0.00 59 1011.5
20260503020811 85 0.0 0.0 0.00 0.00 0.00 59 1011.4
20260503015811 85 0.0 0.0 0.00 0.00 0.00 59 1011.4
20260503014811 85 0.0 0.0 0.00 0.00 0.00 59 1011.4
20260503013810 85 0.0 0.0 0.00 0.00 0.00 59 1011.3
20260503012810 85 0.0 0.0 0.00 0.00 0.00 59 1011.4
20260503011810 85 0.0 0.0 0.00 0.00 0.00 59 1011.4
20260503010810 85 0.0 0.0 0.00 0.00 0.00 59 1011.2
20260503005809 85 0.0 0.0 0.00 0.00 0.00 59 1011.1
20260503004809 85 0.0 0.0 0.00 0.00 0.00 59 1010.9
20260503003809 85 0.0 0.0 0.00 0.00 0.00 58 1010.9
20260503002808 85 0.0 0.0 0.00 0.00 0.00 58 1010.8
20260503001808 85 0.0 0.0 0.00 0.00 0.00 59 1010.9
20260503000808 85 0.0 0.0 0.00 0.00 0.00 58 1010.9
20260502235807 85 0.0 0.0 0.00 0.00 0.00 58 1011.1
20260502234807 85 0.0 0.0 0.00 0.00 0.00 58 1011.2
20260502233807 85 0.0 0.0 0.00 0.00 0.00 58 1011.1
20260502232807 85 0.0 0.0 0.00 0.00 0.00 58 1011.1
20260502231806 85 0.0 0.0 0.00 0.00 0.00 58 1011.2
20260502230806 85 0.0 0.0 0.00 0.00 0.00 58 1011.2
20260502225806 85 0.0 0.0 0.00 0.00 0.00 58 1011.2
20260502224805 85 0.0 0.0 0.00 0.00 0.00 58 1011.2
20260502223805 85 0.0 0.0 0.00 0.00 0.00 58 1011.0
20260502222804 85 0.0 0.0 0.00 0.00 0.00 58 1010.9
20260502221804 84 0.0 0.0 0.00 0.00 0.00 59 1010.9
20260502220804 84 0.0 0.0 0.00 0.00 0.00 59 1011.0
20260502215804 85 0.0 0.0 0.00 0.00 0.00 61 1011.0
20260502214803 84 0.0 0.0 0.00 0.00 0.00 62 1010.9
20260502213803 84 0.0 0.0 0.00 0.00 0.00 62 1011.3
20260502212802 83 0.0 0.0 0.00 0.00 0.00 63 1011.1
20260502211802 81 0.0 0.0 0.00 0.00 0.00 64 1010.9
20260502210802 73 0.0 0.0 0.00 0.00 0.00 73 1011.1
20260502205802 66 0.0 0.0 0.00 0.00 0.00 57 1011.0
20260502204801 67 0.0 0.0 0.00 0.00 0.00 57 1010.6
20260502203801 66 0.0 0.0 0.00 0.00 0.00 54 1010.8
20260502202801 66 0.0 0.0 0.00 0.00 0.00 55 1010.6
20260502201800 65 0.0 0.0 0.00 0.00 0.00 57 1010.3
20260502200800 67 0.0 0.0 0.00 0.00 0.00 57 1009.8
20260502195800 67 0.0 0.0 0.00 0.00 0.00 55 1009.6
20260502194800 67 0.0 0.0 0.00 0.00 0.00 56 1009.3
20260502193759 67 0.0 0.0 0.00 0.00 0.00 57 1009.3
20260502192759 67 0.0 0.0 0.00 0.00 0.00 56 1009.3
20260502191758 66 0.0 0.0 0.00 0.00 0.00 55 1009.2
20260502190758 66 0.0 0.0 0.00 0.00 0.00 52 1009.1
20260502185758 66 0.0 0.0 0.00 0.00 0.00 52 1009.2
20260502184757 66 0.0 0.0 0.00 0.00 0.00 51 1009.3
20260502183757 67 0.0 0.0 0.00 0.00 0.00 51 1009.2
20260502182757 67 0.0 0.0 0.00 0.00 0.00 51 1009.6
20260502181756 67 0.0 0.0 0.00 0.00 0.00 52 1009.8
20260502180756 68 0.0 0.0 0.00 0.00 0.00 51 1009.9
20260502163753 89 0.0 0.0 0.00 0.00 0.00 51 1010.8
20260502162753 88 0.0 0.0 0.00 0.00 0.00 50 1011.1
20260502161753 88 0.0 0.0 0.00 0.00 0.00 50 1011.3
20260502160752 88 0.0 0.0 0.00 0.00 0.00 54 1011.4
20260502151751 88 0.0 0.0 0.00 0.00 0.00 55 1011.2
20260502150750 88 0.0 0.0 0.00 0.00 0.00 57 1010.9
20260502130746 87 0.0 0.0 0.00 0.00 0.00 62 1009.9
20260502123746 88 0.0 0.0 0.00 0.00 0.00 62 1009.5
20260502122745 87 0.0 0.0 0.00 0.00 0.00 62 1009.4
20260502121745 88 0.0 0.0 0.00 0.00 0.00 62 1009.3
20260502120744 88 0.0 0.0 0.00 0.00 0.00 62 1009.2
20260502115744 88 0.0 0.0 0.00 0.00 0.00 62 1008.8
20260502114744 88 0.0 0.0 0.00 0.00 0.00 62 1008.5
20260502113744 88 0.0 0.0 0.00 0.00 0.00 62 1008.4
20260502112743 88 0.0 0.0 0.00 0.00 0.00 62 1008.6
20260502111743 88 0.0 0.0 0.00 0.00 0.00 62 1008.5
20260502110742 88 0.0 0.0 0.00 0.00 0.00 62 1008.5
20260502105742 88 0.0 0.0 0.00 0.00 0.00 62 1008.4
20260502104742 88 0.0 0.0 0.00 0.00 0.00 62 1008.2
20260502103741 88 0.0 0.0 0.00 0.00 0.00 62 1008.0
20260502102741 88 0.0 0.0 0.00 0.00 0.00 62 1008.3
20260502101741 88 0.0 0.0 0.00 0.00 0.00 62 1008.2
20260502100741 88 0.0 0.0 0.00 0.00 0.00 62 1008.0
20260502090739 88 0.0 0.0 0.00 0.00 0.00 62 1007.3
20260502070735 88 0.0 0.0 0.00 0.00 0.00 61 1008.3
20260502065734 89 0.0 0.0 0.00 0.00 0.00 61 1008.4
20260502064734 88 0.0 0.0 0.00 0.00 0.00 61 1008.4
20260502063734 88 0.0 0.0 0.00 0.00 0.00 61 1008.6
20260502062734 89 0.0 0.0 0.00 0.00 0.00 61 1008.6
20260502061733 89 0.0 0.0 0.00 0.00 0.00 61 1008.6
20260502060733 89 0.0 0.0 0.00 0.00 0.00 61 1008.8
20260502055733 89 0.0 0.0 0.00 0.00 0.00 61 1008.7
20260502054732 89 0.0 0.0 0.00 0.00 0.00 61 1008.8
20260502053732 89 0.0 0.0 0.00 0.00 0.00 61 1008.9
20260502052732 89 0.0 0.0 0.00 0.00 0.00 61 1009.0